Location: Newark
(58.8333°N, 23.5833°E)
Time: 09:11:57
(UTC+00:00)

Explorer 7 - Visible Passes

Search period start: 18 November 2019 00:00
Search period end: 28 November 2019 00:00
Orbit: 485 x 680 km, 50.3° (Epoch: 17 November)

Date Brightness Start Highest point End Pass type
(mag) Time Alt. Az. Time Alt. Az. Time Alt. Az.
18 Nov 9.4 02:31:42 14° SE 02:31:42 14° SE 02:32:28 10° SE visible
18 Nov 8.9 04:08:02 14° SW 04:08:39 14° SSW 04:10:46 10° S visible
19 Nov 9.5 02:36:38 12° SSE 02:36:38 12° SSE 02:37:05 10° SE visible
19 Nov 9.1 04:12:57 11° SW 04:13:16 11° SW 04:14:19 10° SSW visible
